Weather History for KPEA - January, 2013

Change the Weather History Date:

Tuesday, January 15, 2013

  Actual Average (KOXV) Record (KOXV)
Temperature  
Mean Temperature 25 °F -  
Max Temperature 35 °F 31 °F 59 °F (2006)
Min Temperature 15 °F 12 °F -18 °F (1972)
Degree Days  
Heating Degree Days 40    
Moisture  
Dew Point 11 °F    
Average Humidity 60    
Maximum Humidity 81    
Minimum Humidity 36    
Precipitation  
Precipitation 0.00 in - - ()
Sea Level Pressure  
Sea Level Pressure 30.29 in    
Wind  
Wind Speed 5 mph (SSW)    
Max Wind Speed 10 mph    
Max Gust Speed -    
Visibility 10 miles    
Events      
Averages and records for this station are not official NWS values.
T = Trace of Precipitation, MM = Missing Value Source: NWS Daily Summary

Daily Weather History Graph

Daily Weather History Graph

Search for Another Location

Airport or City:

Trip Planner

Search our weather history database for the weather conditions in past years. The results will help you decide how hot, cold, wet, or windy it might be!

Date:

Astronomy

Jan. 15, 2013 Rise Set
Actual Time 7:35 AM CST 5:07 PM CST
Civil Twilight 7:04 AM CST 5:38 PM CST
Nautical Twilight 6:30 AM CST 6:12 PM CST
Astronomical Twilight 5:57 AM CST 6:45 PM CST
Moon 9:37 AM CST (1/15) 10:01 PM CST (1/15)
Length of Visible Light 10h 33m
Length of Day
9h 32m
Waxing Crescent, 19% of the Moon is Illuminated
Jan 15
Waxing Crescent
Jan 18
First Quarter
Jan 26
Full
Feb 3
Last Quarter
Feb 10
New

Hourly Weather History & Observations

Time (CST) Temp. Windchill Dew Point Humidity Pressure Visibility Wind Dir Wind Speed Gust Speed Precip Events Conditions
12:15 AM 18.0 °F 12.7 °F 8.8 °F 67% 30.40 in 10.0 mi South 3.5 mph - N/A   Clear
12:35 AM 17.4 °F 10.4 °F 9.3 °F 71% 30.40 in 10.0 mi South 4.6 mph - N/A   Clear
12:55 AM 17.6 °F 10.7 °F 9.9 °F 72% 30.40 in 10.0 mi South 4.6 mph - N/A   Clear
1:15 AM 17.2 °F 10.2 °F 9.9 °F 73% 30.39 in 10.0 mi South 4.6 mph - N/A   Clear
1:35 AM 17.4 °F 10.4 °F 10.4 °F 74% 30.39 in 10.0 mi South 4.6 mph - N/A   Clear
1:55 AM 18.3 °F 10.2 °F 10.9 °F 73% 30.39 in 10.0 mi SSW 5.8 mph - N/A   Clear
2:15 AM 18.1 °F 11.3 °F 10.6 °F 72% 30.39 in 10.0 mi SSW 4.6 mph - N/A   Clear
2:35 AM 18.1 °F 11.3 °F 10.8 °F 73% 30.39 in 10.0 mi SSW 4.6 mph - N/A   Clear
2:55 AM 18.5 °F 13.3 °F 10.9 °F 72% 30.39 in 10.0 mi WSW 3.5 mph - N/A   Clear
3:15 AM 18.0 °F - 11.1 °F 75% 30.39 in 10.0 mi Calm Calm - N/A   Clear
3:35 AM 18.0 °F - 12.2 °F 78% 30.38 in 10.0 mi Calm Calm - N/A   Clear
3:55 AM 18.3 °F - 13.1 °F 80% 30.37 in 10.0 mi Calm Calm - N/A   Clear
4:15 AM 18.3 °F - 12.9 °F 79% 30.36 in 10.0 mi Calm Calm - N/A   Clear
4:55 AM 16.7 °F - 11.8 °F 81% 30.36 in 10.0 mi Calm Calm - N/A   Clear
5:15 AM 16.7 °F 11.2 °F 11.3 °F 79% 30.34 in 10.0 mi SE 3.5 mph - N/A   Clear
5:35 AM 16.5 °F - 11.3 °F 80% 30.34 in 10.0 mi Calm Calm - N/A   Clear
5:55 AM 16.7 °F - 11.1 °F 79% 30.35 in 5.0 mi Calm Calm - N/A   Haze
6:15 AM 15.6 °F 8.3 °F 10.2 °F 79% 30.36 in 10.0 mi SSE 4.6 mph - N/A   Clear
6:35 AM 15.4 °F 8.1 °F 10.4 °F 80% 30.37 in 10.0 mi South 4.6 mph - N/A   Clear
6:55 AM 15.6 °F 10.0 °F 10.8 °F 81% 30.36 in 10.0 mi South 3.5 mph - N/A   Clear
7:15 AM 15.4 °F - 10.4 °F 80% 30.36 in 10.0 mi Calm Calm - N/A   Clear
7:35 AM 15.4 °F 8.1 °F 10.4 °F 80% 30.37 in 10.0 mi South 4.6 mph - N/A   Clear
7:55 AM 15.8 °F 8.6 °F 10.4 °F 79% 30.37 in 10.0 mi South 4.6 mph - N/A   Clear
8:15 AM 15.4 °F 9.8 °F 10.0 °F 79% 30.38 in 10.0 mi South 3.5 mph - N/A   Clear
8:35 AM 16.3 °F 9.2 °F 11.1 °F 80% 30.38 in 10.0 mi South 4.6 mph - N/A   Clear
8:55 AM 17.8 °F 12.5 °F 11.7 °F 77% 30.38 in 10.0 mi South 3.5 mph - N/A   Clear
9:15 AM 19.9 °F 14.9 °F 13.5 °F 76% 30.38 in 10.0 mi South 3.5 mph - N/A   Clear
9:35 AM 22.5 °F 16.3 °F 14.4 °F 71% 30.37 in 10.0 mi South 4.6 mph - N/A   Clear
9:55 AM 23.2 °F 16.0 °F 14.0 °F 68% 30.36 in 10.0 mi SSW 5.8 mph - N/A   Clear
10:15 AM 25.9 °F 19.2 °F 15.6 °F 65% 30.35 in 10.0 mi SSW 5.8 mph - N/A   Clear
10:35 AM 27.9 °F 24.0 °F 15.8 °F 61% 30.34 in 10.0 mi SW 3.5 mph - N/A   Clear
10:55 AM 29.1 °F 22.1 °F 14.4 °F 54% 30.34 in 10.0 mi WSW 6.9 mph - N/A   Clear
11:15 AM 30.2 °F 25.4 °F 14.0 °F 51% 30.33 in 10.0 mi SW 4.6 mph - N/A   Clear
11:35 AM 30.9 °F 26.2 °F 13.8 °F 49% 30.32 in 10.0 mi West 4.6 mph - N/A   Clear
11:55 AM 31.8 °F 26.2 °F 12.6 °F 45% 30.31 in 10.0 mi SW 5.8 mph - N/A   Clear
12:15 PM 32.2 °F 24.4 °F 12.7 °F 45% 30.30 in 10.0 mi South 9.2 mph - N/A   Clear
12:35 PM 32.2 °F 24.4 °F 11.1 °F 42% 30.29 in 10.0 mi South 9.2 mph - N/A   Clear
12:55 PM 33.1 °F 27.7 °F 12.0 °F 42% 30.28 in 10.0 mi SSW 5.8 mph - N/A   Clear
1:15 PM 33.1 °F 26.9 °F 9.3 °F 37% 30.27 in 10.0 mi South 6.9 mph - N/A   Clear
1:35 PM 33.3 °F 27.9 °F 9.5 °F 37% 30.26 in 10.0 mi South 5.8 mph - N/A   Clear
1:55 PM 35.1 °F 28.6 °F 10.8 °F 37% 30.25 in 10.0 mi SSW 8.1 mph - N/A   Clear
2:15 PM 34.7 °F 28.1 °F 10.4 °F 37% 30.25 in 10.0 mi South 8.1 mph - N/A   Clear
2:35 PM 34.9 °F 27.7 °F 10.4 °F 36% 30.25 in 10.0 mi SSW 9.2 mph - N/A   Clear
2:55 PM 35.1 °F 28.6 °F 11.1 °F 37% 30.25 in 10.0 mi SSW 8.1 mph - N/A   Clear
3:15 PM 34.7 °F 26.9 °F 10.6 °F 37% 30.25 in 10.0 mi South 10.4 mph - N/A   Clear
3:35 PM 34.3 °F 27.7 °F 10.6 °F 37% 30.25 in 10.0 mi South 8.1 mph - N/A   Clear
3:55 PM 33.8 °F 27.0 °F 10.6 °F 38% 30.24 in 10.0 mi South 8.1 mph - N/A   Clear
4:15 PM 33.1 °F 25.5 °F 9.9 °F 38% 30.24 in 10.0 mi South 9.2 mph - N/A   Clear
4:35 PM 32.4 °F 25.3 °F 9.1 °F 38% 30.24 in 10.0 mi South 8.1 mph - N/A   Clear
4:55 PM 31.6 °F 26.0 °F 9.7 °F 40% 30.23 in 10.0 mi SSW 5.8 mph - N/A   Clear
5:15 PM 29.8 °F 23.9 °F 10.0 °F 44% 30.22 in 10.0 mi South 5.8 mph - N/A   Clear
5:35 PM 28.0 °F 21.7 °F 12.6 °F 52% 30.22 in 10.0 mi South 5.8 mph - N/A   Clear
5:55 PM 27.1 °F 20.7 °F 12.7 °F 55% 30.22 in 10.0 mi South 5.8 mph - N/A   Clear
6:15 PM 26.6 °F 21.2 °F 12.6 °F 55% 30.21 in 10.0 mi South 4.6 mph - N/A   Clear
6:35 PM 26.4 °F 18.9 °F 12.2 °F 55% 30.20 in 10.0 mi South 6.9 mph - N/A   Clear
6:55 PM 25.7 °F 20.1 °F 10.6 °F 53% 30.20 in 10.0 mi South 4.6 mph - N/A   Clear
7:15 PM 24.8 °F 17.9 °F 11.3 °F 57% 30.20 in 10.0 mi South 5.8 mph - N/A   Clear
7:35 PM 25.2 °F 18.3 °F 9.5 °F 52% 30.19 in 10.0 mi SSW 5.8 mph - N/A   Clear
7:55 PM 24.8 °F 16.9 °F 9.3 °F 52% 30.18 in 10.0 mi South 6.9 mph - N/A   Clear
8:15 PM 24.4 °F 18.6 °F 9.5 °F 53% 30.17 in 10.0 mi SSW 4.6 mph - N/A   Clear
8:35 PM 24.1 °F 19.7 °F 9.3 °F 53% 30.16 in 10.0 mi SSW 3.5 mph - N/A   Clear
8:55 PM 23.9 °F 16.8 °F 8.8 °F 53% 30.15 in 10.0 mi SSW 5.8 mph - N/A   Clear
9:15 PM 24.6 °F 16.7 °F 9.3 °F 52% 30.15 in 10.0 mi SSW 6.9 mph - N/A   Clear
9:35 PM 24.6 °F 15.8 °F 9.5 °F 53% 30.15 in 10.0 mi SW 8.1 mph - N/A   Clear
9:55 PM 23.9 °F 15.0 °F 9.9 °F 55% 30.14 in 10.0 mi SW 8.1 mph - N/A   Clear
10:15 PM 23.0 °F 13.9 °F 10.2 °F 58% 30.14 in 10.0 mi SSW 8.1 mph - N/A   Clear
10:35 PM 22.8 °F 13.6 °F 10.4 °F 59% 30.13 in 10.0 mi SSW 8.1 mph - N/A   Clear
10:55 PM 22.5 °F 13.2 °F 10.4 °F 60% 30.12 in 10.0 mi SSW 8.1 mph - N/A   Clear
11:15 PM 22.8 °F 12.9 °F 10.4 °F 59% 30.11 in 10.0 mi SSW 9.2 mph - N/A   Clear
11:35 PM 22.8 °F 13.6 °F 10.4 °F 59% 30.11 in 10.0 mi SSW 8.1 mph - N/A   Clear